This demonstration page uses our WeatherBlox Daily Observations layout. Learn more.

Left ArrowRight Arrow

34.74481, -87.66753

Hourly Observations for August 19, 2015

Temp ( °F °C ) Dew Point ( °F °C ) Humidity (%) Winds ( mph kmh ) Pressure ( in mb ) Visibility ( mi km ) Precip ( " mm )
12:53 am 00:53 Clear 77 25 71 21.7 82 82 S 6 9 29.88 1012 10 16 0.00 0.00
1:53 am 01:53 Clear 76 24.4 71 21.7 85 85 S 5 7 29.87 1012 10 16 0.00 0.00
2:53 am 02:53 Clear 76 24.4 71 21.7 85 85 S 5 7 29.89 1012 10 16 0.00 0.00
3:53 am 03:53 Mostly Cloudy 75 23.9 72 22.2 90 90 SSE 3 6 29.89 1012 10 16 0.01 0.25
4:53 am 04:53 Mostly Cloudy 76 24.4 72 22.2 88 88 SSW 6 9 29.90 1012 10 16 0.00 0.00
5:53 am 05:53 Cloudy 76 24.4 71 21.7 85 85 SW 8 13 29.91 1013 10 16 0.00 0.00
6:53 am 06:53 Cloudy 76 24.4 71 21.7 85 85 SW 8 13 29.93 1014 10 16 0.00 0.00
7:53 am 07:53 Mostly Cloudy 77 25 72 22.2 85 85 SSW 7 11 29.93 1014 10 16 0.00 0.00
8:53 am 08:53 Sunny 80 26.7 73 22.8 79 79 SSW 8 13 29.92 1013 10 16 0.00 0.00
9:53 am 09:53 Partly Cloudy 83 28.3 72 22.2 70 70 SW 8 13 29.91 1013 10 16 0.00 0.00
10:53 am 10:53 Mostly Cloudy 86 30 72 22.2 63 63 SW 10 17 29.92 1013 10 16 0.00 0.00
11:53 am 11:53 Partly Cloudy 87 30.6 71 21.7 59 59 SW 16 26 29.92 1013 10 16 0.00 0.00
12:53 pm 12:53 Mostly Sunny 89 31.7 71 21.7 55 55 SW 16 26 29.88 1012 10 16 0.00 0.00
1:53 pm 13:53 Mostly Sunny 88 31.1 72 22.2 59 59 WSW 10 17 29.87 1011 10 16 0.00 0.00
2:53 pm 14:53 Mostly Sunny 82 27.8 72 22.2 72 72 SW 9 15 29.86 1011 10 16 0.00 0.03
3:13 pm 15:13 Partly Cloudy with Nearby Thunderstorms 81 27.2 73 22.8 77 77 WSW 10 17 29.85 1011 9 14 0.00 0.03
3:40 pm 15:40 Mostly Sunny 80 26.7 73 22.8 79 79 SSW 10 17 29.85 1011 10 16 0.00 0.03
3:53 pm 15:53 Sunny 80 26.7 73 22.8 79 79 SSW 8 13 29.86 1011 10 16 0.00 0.03
4:53 pm 16:53 Partly Cloudy 79 26.1 73 22.8 82 82 SSW 8 13 29.88 1012 10 16 0.01 0.25
5:12 pm 17:12 Cloudy with Nearby Thunderstorms 78 25.6 73 22.8 85 85 SSW 15 24 29.88 1012 4 6 0.05 1.27
5:30 pm 17:30 Cloudy with Rain 77 25 73 22.8 88 88 SSW 9 15 29.88 1012 5 8 0.10 2.54
5:53 pm 17:53 Cloudy with Light Rain 76 24.4 73 22.8 91 91 S 6 9 29.89 1012 8 13 0.13 3.30
6:53 pm 18:53 Mostly Sunny 76 24.4 72 22.2 88 88 S 8 13 29.89 1012 10 16 0.01 0.25
7:53 pm 19:53 Partly Cloudy 75 23.9 71 21.7 88 88 WSW 3 6 29.90 1013 10 16 0.00 0.00
8:53 pm 20:53 Mostly Clear 75 23.9 71 21.7 88 88 SSW 5 7 29.88 1012 10 16 0.01 0.25
9:53 pm 21:53 Mostly Clear 74 23.3 71 21.7 91 91 WSW 5 7 29.91 1013 10 16 0.00 0.00
10:21 pm 22:21 Mostly Cloudy 75 23.9 71 21.7 88 88 SW 5 7 29.91 1013 10 16 0.00 0.00
10:28 pm 22:28 Mostly Cloudy 75 23.9 71 21.7 88 88 SW 6 9 29.91 1013 10 16 0.00 0.00
10:53 pm 22:53 Cloudy 75 23.9 71 21.7 88 88 WSW 8 13 29.93 1014 10 16 0.00 0.00
11:53 pm 23:53 Mostly Cloudy 75 23.9 71 21.7 88 88 SW 5 7 29.93 1014 10 16 0.00 0.00

Powered by AerisWeather